TITAN 3C TRANSTAGE DEB, 39298

Orbit data source: Space-Track

TITAN 3C TRANSTAGE DEB, 39298 is space debris in GEO originally from a launch on Thu, 26 Sep 1968 UTC launched from the Air Force Eastern Test Range (AFETR). Debris objects in space refer to the collection of defunct objects orbiting the Earth. Examples of debris include non-operational satellites, rocket bodies, and fragments generated from explosions, collisions, or faulty payload assembly.

Loading next visibility...
Identifier
39298, 1968-081AJ
Orbit
GEO
Country
Flag of USUS
Related business
Manufacturer
Unknown
Mission
Spacecraft
Bus & Motor
Unknown
Mass
Unknown
Launch date (UTC)
1968-09-26 (57 years ago)
Launch vehicle
Unknown
Launch site
Air Force Eastern Test Range (AFETR)
Object type
Payload
Rocket body
Debris
Shape & HBR
Unknown shape, 1.1 m
Radar Cross Section
RCS unknown

Expand to show TLE details & history
Last TLE update: 15 hours ago

TLE from 15 hours ago
0 TITAN 3C TRANSTAGE DEB
1 39298U 68081AJ  25302.24800662 -.00000302  00000-0  00000-0 0  9990
2 39298   1.4378   9.2896 0150908 331.4802  99.4596  1.00154648 63970
Epoch: 2025-10-29T05:57Z
TLE epoch observation values (Epoch: 2025-10-29T05:57:07.771Z)
Latitude
1.36923°
Longitude
-45.2164°
Altitude
35,929.564 km
Speed
3.065 km/s
True Right ascension
05h 27m 33s
True Declination
1° 22' 04"
Sunlit
Object was in daylight at epoch
Visualization orbit readout
Latitude
Unknown
Longitude
Unknown
Altitude
Unknown
Speed
Unknown
Apparent Right ascension
Unknown
Apparent Declination
Unknown
Sunlit
N/A
Visualization observer readout
Local Sidereal Time
16:13:23
Azimuth
Unknown
Elevation
Unknown
Doppler factor
Unknown
Orbital elements
Apogee altitude
36,457.345 km
Perigee altitude
35,183.722 km
Semi-major axis
42,198.671 km
Eccentricity
0.01509
Inclination
1.4378°
RAAN
9.2896°
Arg. of periapsis
331.4802°
True anomaly
101.15984°
Mean anomaly
99.4596°
Eccentric anomaly
100.31028°
Mean motion
0.25038 °/min
Orbital period
1,437.83 mins
BSTAR
0
Loading maneuver chart data...
Computing Atmospheric mass density...

Documentation

Showing up to 5 results
|